This is the latest recevied weather packets stored in our database for station/object KA9CBS. If no packets are shown the sender has not sent any weather packets the latest 10 day(s).
| Time | Temp. | Humidity | Pressure | Rain* | Wind** | Luminosity | Snow |
|---|---|---|---|---|---|---|---|
| 1787611694 | 25.56° C | 63% | 1018.6 hPa | 0 mm | - | 74 W/m² | - |
| 1787611390 | 25.56° C | 63% | 1018.8 hPa | 0 mm | - | 72 W/m² | - |
| 1787611085 | 25.56° C | 64% | 1018.8 hPa | 0 mm | - | 81 W/m² | - |
| 1787610781 | 25.56° C | 66% | 1018.8 hPa | 0 mm | - | 92 W/m² | - |
| 1787610476 | 25.56° C | 65% | 1018.4 hPa | 0 mm | - | 99 W/m² | - |
| 1787610175 | 26.11° C | 60% | 1018.5 hPa | 0 mm | - | 100 W/m² | - |
| 1787609875 | 26.11° C | 61% | 1018.3 hPa | 0 mm | - | 92 W/m² | - |
| 1787609575 | 26.67° C | 60% | 1018.4 hPa | 0 mm | - | 92 W/m² | - |
| 1787609274 | 26.67° C | 58% | 1018.5 hPa | 0 mm | - | 100 W/m² | - |
| 1787608969 | 26.67° C | 58% | 1018.4 hPa | 0 mm | - | 125 W/m² | - |
| 1787608664 | 26.67° C | 58% | 1018.4 hPa | 0 mm | - | 169 W/m² | - |
| 1787608358 | 27.22° C | 55% | 1018.4 hPa | 0 mm | - | 145 W/m² | - |
| 1787608056 | 27.22° C | 57% | 1018.4 hPa | 0 mm | - | 129 W/m² | - |
| 1787607752 | 27.78° C | 56% | 1018.2 hPa | 0 mm | - | 172 W/m² | - |
| 1787607449 | 27.78° C | 50% | 1018.4 hPa | 0 mm | - | 109 W/m² | - |
| 1787607146 | 27.78° C | 51% | 1018.6 hPa | 0 mm | - | 113 W/m² | - |
| 1787606845 | 27.22° C | 52% | 1018.6 hPa | 0 mm | - | 101 W/m² | - |
| 1787606544 | 27.78° C | 50% | 1018.9 hPa | 0 mm | - | 95 W/m² | - |
| 1787606243 | 28.89° C | 50% | 1018.8 hPa | 0 mm | - | 86 W/m² | - |
| 1787605943 | 28.89° C | 50% | 1018.9 hPa | 0 mm | - | 314 W/m² | - |
| 1787605642 | 28.89° C | 49% | 1018.8 hPa | 0 mm | - | 151 W/m² | - |
| 1787605338 | 28.33° C | 51% | 1018.9 hPa | 0 mm | - | 509 W/m² | - |
| 1787605033 | 28.89° C | 53% | 1019 hPa | 0 mm | - | 519 W/m² | - |
| 1787604732 | 28.89° C | 51% | 1018.9 hPa | 0 mm | - | 552 W/m² | - |
| 1787604428 | 28.89° C | 49% | 1019.3 hPa | 0 mm | - | 447 W/m² | - |
* Rain latest hour (hover to see other rain measurements)
** Current wind speed in m/s (hover to see current wind gust speed)